Time,TemperatureF,DewpointF,PressureIn,WindDirection,WindDirectionDegrees,WindSpeedMPH,WindSpeedGustMPH,Humidity,HourlyPrecipIn,Conditions,Clouds,dailyrainin,SoftwareType,DateUTC
2013-04-14 00:11:00,46.1,39.0,29.93,West,269,0.0,-999.0,76,-99.99,,,0.00,weatherlink.com 1.10,2013-04-14 04:11:00,
2013-04-14 00:26:00,46.3,38.0,29.93,West,266,0.0,-999.0,74,-99.99,,,0.00,weatherlink.com 1.10,2013-04-14 04:26:00,
2013-04-14 00:41:00,46.2,39.0,29.93,West,262,0.0,-999.0,75,-99.99,,,0.00,weatherlink.com 1.10,2013-04-14 04:41:00,
2013-04-14 00:56:00,46.2,39.0,29.92,SSW,195,0.0,-999.0,76,-99.99,,,0.00,weatherlink.com 1.10,2013-04-14 04:56:00,
2013-04-14 01:11:00,45.9,39.0,29.92,SSW,202,0.0,-999.0,77,-99.99,,,0.00,weatherlink.com 1.10,2013-04-14 05:11:00,
2013-04-14 01:26:00,45.2,40.0,29.91,SSW,202,0.0,-999.0,83,-99.99,,,0.00,weatherlink.com 1.10,2013-04-14 05:26:00,
2013-04-14 01:41:00,44.4,40.0,29.91,SSW,202,0.0,-999.0,84,-99.99,,,0.00,weatherlink.com 1.10,2013-04-14 05:41:00,
2013-04-14 01:56:00,44.2,39.0,29.91,SSW,202,0.0,-999.0,83,-99.99,,,0.00,weatherlink.com 1.10,2013-04-14 05:56:00,
2013-04-14 02:11:00,43.7,40.0,29.90,SSW,202,0.0,-999.0,85,-99.99,,,0.00,weatherlink.com 1.10,2013-04-14 06:11:00,
2013-04-14 02:26:00,43.3,39.0,29.91,SSW,202,0.0,-999.0,85,-99.99,,,0.00,weatherlink.com 1.10,2013-04-14 06:26:00,
2013-04-14 02:41:00,42.9,39.0,29.92,SSW,202,0.0,-999.0,86,-99.99,,,0.00,weatherlink.com 1.10,2013-04-14 06:41:00,
2013-04-14 02:56:00,42.3,39.0,29.92,SSW,202,0.0,-999.0,87,-99.99,,,0.00,weatherlink.com 1.10,2013-04-14 06:56:00,
2013-04-14 03:11:00,41.5,38.0,29.91,SSW,202,0.0,-999.0,88,-99.99,,,0.00,weatherlink.com 1.10,2013-04-14 07:11:00,
2013-04-14 03:26:00,40.9,38.0,29.91,SSW,202,0.0,-999.0,90,-99.99,,,0.00,weatherlink.com 1.10,2013-04-14 07:26:00,
2013-04-14 03:41:00,41.0,39.0,29.91,SSW,202,0.0,-999.0,91,-99.99,,,0.00,weatherlink.com 1.10,2013-04-14 07:41:00,
2013-04-14 03:56:00,40.7,38.0,29.92,SSW,202,0.0,-999.0,91,-99.99,,,0.00,weatherlink.com 1.10,2013-04-14 07:56:00,
2013-04-14 04:11:00,40.7,38.0,29.92,SSW,202,0.0,-999.0,91,-99.99,,,0.00,weatherlink.com 1.10,2013-04-14 08:11:00,
2013-04-14 04:26:00,40.9,38.0,29.92,SSW,202,0.0,-999.0,90,-99.99,,,0.00,weatherlink.com 1.10,2013-04-14 08:26:00,
2013-04-14 04:56:00,41.5,38.0,29.93,SSW,202,0.0,-999.0,88,-99.99,,,0.00,weatherlink.com 1.10,2013-04-14 08:56:00,
2013-04-14 05:26:00,41.8,38.0,29.93,SSW,202,0.0,-999.0,87,-99.99,,,0.00,weatherlink.com 1.10,2013-04-14 09:26:00,
2013-04-14 07:11:00,41.8,37.0,29.95,SSW,202,0.0,-999.0,83,-99.99,,,0.00,weatherlink.com 1.10,2013-04-14 11:11:00,
2013-04-14 07:26:00,42.5,37.0,29.96,WSW,242,0.0,-999.0,80,-99.99,,,0.00,weatherlink.com 1.10,2013-04-14 11:26:00,
2013-04-14 07:41:00,43.3,37.0,29.95,WSW,242,0.0,-999.0,77,-99.99,,,0.00,weatherlink.com 1.10,2013-04-14 11:41:00,
2013-04-14 07:56:00,44.2,37.0,29.96,SW,218,0.0,-999.0,76,-99.99,,,0.00,weatherlink.com 1.10,2013-04-14 11:56:00,
2013-04-14 08:11:00,45.5,36.0,29.95,SSW,213,0.0,-999.0,69,-99.99,,,0.00,weatherlink.com 1.10,2013-04-14 12:11:00,
2013-04-14 08:26:00,46.2,35.0,29.96,SSW,211,3.0,-999.0,66,-99.99,,,0.00,weatherlink.com 1.10,2013-04-14 12:26:00,
2013-04-14 08:41:00,46.3,35.0,29.97,WSW,238,2.0,-999.0,65,-99.99,,,0.00,weatherlink.com 1.10,2013-04-14 12:41:00,
2013-04-14 08:56:00,46.5,36.0,29.96,WSW,248,0.0,-999.0,66,-99.99,,,0.00,weatherlink.com 1.10,2013-04-14 12:56:00,
2013-04-14 09:12:00,46.8,35.0,29.96,SSW,207,1.0,-999.0,64,-99.99,,,0.00,weatherlink.com 1.10,2013-04-14 13:12:00,
2013-04-14 09:26:00,46.8,35.0,29.96,West,262,1.0,-999.0,64,-99.99,,,0.00,weatherlink.com 1.10,2013-04-14 13:26:00,
2013-04-14 09:41:00,47.2,34.0,29.97,West,278,1.0,-999.0,61,-99.99,,,0.00,weatherlink.com 1.10,2013-04-14 13:41:00,
2013-04-14 09:56:00,46.9,34.0,29.96,West,269,0.0,-999.0,61,-99.99,,,0.00,weatherlink.com 1.10,2013-04-14 13:56:00,
2013-04-14 10:26:00,47.0,32.0,29.98,South,176,4.0,-999.0,57,-99.99,,,0.00,weatherlink.com 1.10,2013-04-14 14:26:00,
2013-04-14 10:41:00,47.7,32.0,29.98,NW,317,2.0,-999.0,56,-99.99,,,0.00,weatherlink.com 1.10,2013-04-14 14:41:00,
2013-04-14 10:56:00,48.1,32.0,29.98,WSW,249,1.0,-999.0,55,-99.99,,,0.00,weatherlink.com 1.10,2013-04-14 14:56:00,
2013-04-14 11:11:00,51.6,35.0,29.97,SSW,196,2.0,-999.0,53,-99.99,,,0.00,weatherlink.com 1.10,2013-04-14 15:11:00,
2013-04-14 11:27:00,52.9,33.0,29.97,WSW,243,4.0,-999.0,47,-99.99,,,0.00,weatherlink.com 1.10,2013-04-14 15:27:00,
2013-04-14 11:42:00,52.4,32.0,29.97,SW,217,5.0,-999.0,46,-99.99,,,0.00,weatherlink.com 1.10,2013-04-14 15:42:00,
2013-04-14 11:57:00,50.5,29.0,29.97,SW,217,1.0,-999.0,43,-99.99,,,0.00,weatherlink.com 1.10,2013-04-14 15:57:00,
2013-04-14 12:12:00,53.5,31.0,29.97,WNW,294,0.0,-999.0,43,-99.99,,,0.00,weatherlink.com 1.10,2013-04-14 16:12:00,
2013-04-14 12:27:00,51.5,30.0,29.97,WNW,286,1.0,-999.0,44,-99.99,,,0.00,weatherlink.com 1.10,2013-04-14 16:27:00,
2013-04-14 12:42:00,50.8,29.0,29.97,West,263,1.0,-999.0,43,-99.99,,,0.00,weatherlink.com 1.10,2013-04-14 16:42:00,
2013-04-14 12:57:00,52.0,29.0,29.97,West,264,0.0,-999.0,41,-99.99,,,0.00,weatherlink.com 1.10,2013-04-14 16:57:00,
2013-04-14 13:12:00,53.8,32.0,29.97,West,262,1.0,-999.0,43,-99.99,,,0.00,weatherlink.com 1.10,2013-04-14 17:12:00,
2013-04-14 13:27:00,51.7,30.0,29.98,South,171,1.0,-999.0,43,-99.99,,,0.00,weatherlink.com 1.10,2013-04-14 17:27:00,
2013-04-14 13:42:00,50.9,30.0,29.98,WSW,255,3.0,-999.0,45,-99.99,,,0.00,weatherlink.com 1.10,2013-04-14 17:42:00,
2013-04-14 13:57:00,51.7,31.0,29.98,West,279,1.0,-999.0,45,-99.99,,,0.00,weatherlink.com 1.10,2013-04-14 17:57:00,
2013-04-14 14:12:00,51.7,31.0,29.98,WSW,257,2.0,-999.0,46,-99.99,,,0.00,weatherlink.com 1.10,2013-04-14 18:12:00,
2013-04-14 14:27:00,51.3,30.0,30.00,NNW,340,7.0,-999.0,44,-99.99,,,0.00,weatherlink.com 1.10,2013-04-14 18:27:00,
2013-04-14 14:42:00,51.0,31.0,30.00,WSW,255,3.0,-999.0,46,-99.99,,,0.00,weatherlink.com 1.10,2013-04-14 18:42:00,
2013-04-14 14:57:00,50.6,30.0,30.00,West,275,5.0,-999.0,45,-99.99,,,0.00,weatherlink.com 1.10,2013-04-14 18:57:00,
2013-04-14 15:12:00,50.8,31.0,30.00,SW,234,2.0,-999.0,46,-99.99,,,0.00,weatherlink.com 1.10,2013-04-14 19:12:00,
2013-04-14 15:27:00,50.7,29.0,30.00,SSE,167,2.0,-999.0,44,-99.99,,,0.00,weatherlink.com 1.10,2013-04-14 19:27:00,
2013-04-14 15:42:00,50.8,29.0,30.00,NE,36,3.0,-999.0,43,-99.99,,,0.00,weatherlink.com 1.10,2013-04-14 19:42:00,
2013-04-14 15:57:00,50.8,29.0,30.01,SSW,194,2.0,-999.0,43,-99.99,,,0.00,weatherlink.com 1.10,2013-04-14 19:57:00,
2013-04-14 16:12:00,50.3,29.0,30.01,West,262,6.0,-999.0,44,-99.99,,,0.00,weatherlink.com 1.10,2013-04-14 20:12:00,
2013-04-14 16:27:00,50.3,30.0,30.01,SW,226,0.0,-999.0,45,-99.99,,,0.00,weatherlink.com 1.10,2013-04-14 20:27:00,
2013-04-14 16:42:00,52.0,30.0,30.02,WNW,290,1.0,-999.0,43,-99.99,,,0.00,weatherlink.com 1.10,2013-04-14 20:42:00,
2013-04-14 16:57:00,50.4,28.0,30.03,West,265,6.0,-999.0,43,-99.99,,,0.00,weatherlink.com 1.10,2013-04-14 20:57:00,
2013-04-14 17:12:00,50.2,28.0,30.04,West,268,4.0,-999.0,43,-99.99,,,0.00,weatherlink.com 1.10,2013-04-14 21:12:00,
2013-04-14 17:27:00,50.3,30.0,30.04,NNE,25,1.0,-999.0,45,-99.99,,,0.00,weatherlink.com 1.10,2013-04-14 21:27:00,
2013-04-14 17:42:00,50.6,29.0,30.05,East,94,5.0,-999.0,44,-99.99,,,0.00,weatherlink.com 1.10,2013-04-14 21:42:00,
2013-04-14 17:57:00,49.7,28.0,30.06,SSW,207,2.0,-999.0,43,-99.99,,,0.00,weatherlink.com 1.10,2013-04-14 21:57:00,
2013-04-14 18:12:00,49.7,28.0,30.07,West,272,0.0,-999.0,43,-99.99,,,0.00,weatherlink.com 1.10,2013-04-14 22:12:00,
2013-04-14 18:27:00,48.7,28.0,30.07,SW,219,0.0,-999.0,45,-99.99,,,0.00,weatherlink.com 1.10,2013-04-14 22:27:00,
2013-04-14 18:42:00,47.7,28.0,30.07,NNE,15,2.0,-999.0,46,-99.99,,,0.00,weatherlink.com 1.10,2013-04-14 22:42:00,
2013-04-14 18:57:00,47.1,28.0,30.07,South,184,2.0,-999.0,47,-99.99,,,0.00,weatherlink.com 1.10,2013-04-14 22:57:00,
2013-04-14 19:12:00,46.7,28.0,30.08,ENE,73,0.0,-999.0,48,-99.99,,,0.00,weatherlink.com 1.10,2013-04-14 23:12:00,
2013-04-14 19:27:00,46.1,28.0,30.09,WSW,257,1.0,-999.0,50,-99.99,,,0.00,weatherlink.com 1.10,2013-04-14 23:27:00,
2013-04-14 19:42:00,45.4,28.0,30.10,West,277,0.0,-999.0,51,-99.99,,,0.00,weatherlink.com 1.10,2013-04-14 23:42:00,
2013-04-14 19:57:00,44.8,28.0,30.11,West,271,0.0,-999.0,53,-99.99,,,0.00,weatherlink.com 1.10,2013-04-14 23:57:00,
2013-04-14 20:12:00,44.2,29.0,30.12,SW,232,0.0,-999.0,55,-99.99,,,0.00,weatherlink.com 1.10,2013-04-15 00:12:00,
2013-04-14 20:27:00,43.4,28.0,30.13,West,263,0.0,-999.0,56,-99.99,,,0.00,weatherlink.com 1.10,2013-04-15 00:27:00,
2013-04-14 20:42:00,42.7,29.0,30.14,West,263,0.0,-999.0,58,-99.99,,,0.00,weatherlink.com 1.10,2013-04-15 00:42:00,
2013-04-14 20:57:00,41.9,29.0,30.15,West,263,0.0,-999.0,60,-99.99,,,0.00,weatherlink.com 1.10,2013-04-15 00:57:00,
2013-04-14 21:12:00,41.1,29.0,30.17,West,263,0.0,-999.0,62,-99.99,,,0.00,weatherlink.com 1.10,2013-04-15 01:12:00,
2013-04-14 21:27:00,40.9,29.0,30.18,West,261,0.0,-999.0,63,-99.99,,,0.00,weatherlink.com 1.10,2013-04-15 01:27:00,
2013-04-14 21:43:00,40.6,29.0,30.18,West,261,0.0,-999.0,64,-99.99,,,0.00,weatherlink.com 1.10,2013-04-15 01:43:00,
2013-04-14 21:58:00,39.8,30.0,30.18,West,261,0.0,-999.0,69,-99.99,,,0.00,weatherlink.com 1.10,2013-04-15 01:58:00,
2013-04-14 22:13:00,38.7,30.0,30.18,West,261,0.0,-999.0,71,-99.99,,,0.00,weatherlink.com 1.10,2013-04-15 02:13:00,
2013-04-14 22:28:00,37.8,30.0,30.18,West,261,0.0,-999.0,74,-99.99,,,0.00,weatherlink.com 1.10,2013-04-15 02:28:00,
2013-04-14 22:43:00,37.1,30.0,30.19,West,261,0.0,-999.0,75,-99.99,,,0.00,weatherlink.com 1.10,2013-04-15 02:43:00,
2013-04-14 22:58:00,36.7,30.0,30.18,West,261,0.0,-999.0,76,-99.99,,,0.00,weatherlink.com 1.10,2013-04-15 02:58:00,
2013-04-14 23:13:00,36.1,30.0,30.19,West,261,0.0,-999.0,78,-99.99,,,0.00,weatherlink.com 1.10,2013-04-15 03:13:00,
2013-04-14 23:28:00,35.5,29.0,30.19,West,261,0.0,-999.0,78,-99.99,,,0.00,weatherlink.com 1.10,2013-04-15 03:28:00,
2013-04-14 23:43:00,35.1,30.0,30.20,West,261,0.0,-999.0,80,-99.99,,,0.00,weatherlink.com 1.10,2013-04-15 03:43:00,
2013-04-14 23:58:00,34.8,29.0,30.21,West,261,0.0,-999.0,80,-99.99,,,0.00,weatherlink.com 1.10,2013-04-15 03:58:00,